| time (UTC) | temp C | wind direction | speed KPH | gust KPH | rain 1hr cm | rain 24hr cm | rain mn cm | humidity % | barometer mb |
| 20260505030524 | 3 | 247 | 38.6 | 51.5 | 0.00 | 0.00 | 0.00 | 66 | 1008.8 |
| 20260505025522 | 3 | 255 | 33.8 | 51.5 | 0.00 | 0.00 | 0.00 | 64 | 1008.9 |
| 20260505024522 | 3 | 251 | 37.0 | 56.3 | 0.00 | 0.00 | 0.00 | 64 | 1008.8 |
| 20260505023522 | 3 | 248 | 41.8 | 61.2 | 0.00 | 0.00 | 0.00 | 63 | 1008.8 |
| 20260505022023 | 4 | 249 | 41.8 | 57.9 | 0.00 | 0.00 | 0.00 | 62 | 1008.6 |
| 20260505021022 | 4 | 246 | 41.8 | 56.3 | 0.00 | 0.00 | 0.00 | 57 | 1008.5 |
| 20260505020022 | 5 | 245 | 38.6 | 56.3 | 0.00 | 0.00 | 0.00 | 53 | 1008.7 |
| 20260505015022 | 5 | 244 | 37.0 | 53.1 | 0.00 | 0.00 | 0.00 | 51 | 1008.8 |
| 20260505014022 | 5 | 247 | 38.6 | 59.5 | 0.00 | 0.00 | 0.00 | 50 | 1008.8 |
| 20260505013057 | 5 | 254 | 43.5 | 57.9 | 0.00 | 0.00 | 0.00 | 50 | 1008.8 |
| 20260505013022 | 5 | 254 | 43.5 | 57.9 | 0.00 | 0.00 | 0.00 | 50 | 1008.8 |
| 20260505012022 | 5 | 249 | 37.0 | 49.9 | 0.00 | 0.00 | 0.00 | 49 | 1008.9 |
| 20260505011022 | 5 | 247 | 37.0 | 49.9 | 0.00 | 0.00 | 0.00 | 48 | 1008.8 |
| 20260505010024 | 5 | 247 | 37.0 | 51.5 | 0.00 | 0.00 | 0.00 | 47 | 1009.0 |
| 20260505005022 | 5 | 249 | 37.0 | 53.1 | 0.00 | 0.00 | 0.00 | 45 | 1009.0 |
| 20260505004022 | 5 | 259 | 37.0 | 57.9 | 0.00 | 0.00 | 0.00 | 44 | 1009.1 |
| 20260505002228 | 5 | 252 | 41.8 | 51.5 | 0.00 | 0.00 | 0.00 | 44 | 1009.0 |
| 20260505001229 | 6 | 243 | 37.0 | 51.5 | 0.00 | 0.00 | 0.00 | 43 | 1008.9 |
| 20260505000229 | 6 | 240 | 35.4 | 54.7 | 0.00 | 0.00 | 0.00 | 42 | 1009.4 |
| 20260504235230 | 6 | 251 | 32.2 | 51.5 | 0.00 | 0.00 | 0.00 | 41 | 1009.3 |
| 20260504234230 | 6 | 254 | 38.6 | 61.2 | 0.00 | 0.00 | 0.00 | 42 | 1009.4 |
| 20260504233228 | 6 | 251 | 40.2 | 56.3 | 0.00 | 0.00 | 0.00 | 40 | 1009.4 |
| 20260504232228 | 6 | 241 | 40.2 | 54.7 | 0.00 | 0.00 | 0.00 | 37 | 1009.1 |
| 20260504231228 | 6 | 250 | 37.0 | 54.7 | 0.00 | 0.00 | 0.00 | 36 | 1009.5 |
| 20260504230229 | 6 | 255 | 37.0 | 59.5 | 0.00 | 0.00 | 0.00 | 35 | 1009.7 |
| 20260504225228 | 7 | 249 | 38.6 | 70.8 | 0.00 | 0.00 | 0.00 | 36 | 1009.7 |
| 20260504224229 | 7 | 258 | 41.8 | 61.2 | 0.00 | 0.00 | 0.00 | 37 | 1009.7 |
| 20260504223551 | 7 | 256 | 40.2 | 59.5 | 0.00 | 0.00 | 0.00 | 37 | 1009.9 |
| 20260504223228 | 7 | 256 | 40.2 | 59.5 | 0.00 | 0.00 | 0.00 | 37 | 1009.9 |
| 20260504222228 | 7 | 260 | 43.5 | 64.4 | 0.00 | 0.00 | 0.00 | 36 | 1009.9 |
| 20260504221708 | 7 | 259 | 41.8 | 64.4 | 0.00 | 0.00 | 0.00 | 40 | 1010.1 |
| 20260504221228 | 7 | 259 | 41.8 | 64.4 | 0.00 | 0.00 | 0.00 | 40 | 1010.1 |
| 20260504220611 | 7 | 254 | 38.6 | 70.8 | 0.00 | 0.00 | 0.00 | 39 | 1010.2 |
| 20260504220230 | 7 | 254 | 38.6 | 70.8 | 0.00 | 0.00 | 0.00 | 39 | 1010.2 |
| 20260504215748 | 7 | 258 | 33.8 | 59.5 | 0.00 | 0.00 | 0.00 | 38 | 1010.4 |
| 20260504215228 | 7 | 258 | 33.8 | 59.5 | 0.00 | 0.00 | 0.00 | 38 | 1010.4 |
| 20260504214703 | 7 | 256 | 37.0 | 53.1 | 0.00 | 0.00 | 0.00 | 41 | 1010.4 |
| 20260504214229 | 7 | 256 | 37.0 | 53.1 | 0.00 | 0.00 | 0.00 | 41 | 1010.4 |
| 20260504213647 | 7 | 257 | 38.6 | 57.9 | 0.00 | 0.00 | 0.00 | 40 | 1010.4 |
| 20260504213229 | 7 | 257 | 38.6 | 57.9 | 0.00 | 0.00 | 0.00 | 40 | 1010.4 |
| 20260504212743 | 7 | 265 | 30.6 | 46.7 | 0.00 | 0.00 | 0.00 | 40 | 1010.7 |
| 20260504212229 | 7 | 265 | 30.6 | 46.7 | 0.00 | 0.00 | 0.00 | 40 | 1010.7 |
| 20260504211709 | 7 | 256 | 32.2 | 48.3 | 0.00 | 0.00 | 0.00 | 41 | 1010.6 |
| 20260504211231 | 7 | 256 | 32.2 | 48.3 | 0.00 | 0.00 | 0.00 | 41 | 1010.6 |
| 20260504210228 | 8 | 260 | 30.6 | 48.3 | 0.00 | 0.00 | 0.00 | 42 | 1010.8 |
| 20260504205230 | 8 | 246 | 30.6 | 57.9 | 0.00 | 0.00 | 0.00 | 42 | 1010.7 |
| 20260504204229 | 8 | 264 | 30.6 | 59.5 | 0.00 | 0.00 | 0.00 | 39 | 1010.8 |
| 20260504203230 | 8 | 251 | 37.0 | 62.8 | 0.00 | 0.00 | 0.00 | 38 | 1010.8 |
| 20260504202234 | 8 | 254 | 35.4 | 53.1 | 0.00 | 0.00 | 0.00 | 38 | 1010.6 |
| 20260504201228 | 8 | 253 | 33.8 | 59.5 | 0.00 | 0.00 | 0.00 | 35 | 1010.6 |
| 20260504200228 | 8 | 246 | 32.2 | 45.1 | 0.00 | 0.00 | 0.00 | 32 | 1010.6 |
| 20260504195228 | 8 | 249 | 30.6 | 46.7 | 0.00 | 0.00 | 0.00 | 32 | 1010.5 |
| 20260504194228 | 8 | 247 | 27.4 | 45.1 | 0.00 | 0.00 | 0.00 | 32 | 1010.6 |
| 20260504193228 | 8 | 242 | 29.0 | 45.1 | 0.00 | 0.00 | 0.00 | 32 | 1010.6 |
| 20260504192229 | 8 | 253 | 29.0 | 43.5 | 0.00 | 0.00 | 0.00 | 32 | 1010.7 |
| 20260504191228 | 8 | 247 | 29.0 | 41.8 | 0.00 | 0.00 | 0.00 | 31 | 1010.6 |
| 20260504190228 | 8 | 239 | 24.1 | 43.5 | 0.00 | 0.00 | 0.00 | 34 | 1010.7 |
| 20260504185228 | 8 | 255 | 27.4 | 43.5 | 0.00 | 0.00 | 0.00 | 37 | 1010.8 |
| 20260504184228 | 8 | 250 | 29.0 | 45.1 | 0.00 | 0.00 | 0.00 | 33 | 1010.7 |
| 20260504183228 | 7 | 252 | 32.2 | 46.7 | 0.00 | 0.00 | 0.00 | 34 | 1010.9 |
| 20260504182229 | 8 | 247 | 33.8 | 53.1 | 0.00 | 0.00 | 0.00 | 37 | 1011.0 |
| 20260504181228 | 7 | 246 | 30.6 | 45.1 | 0.00 | 0.00 | 0.00 | 37 | 1011.0 |
| 20260504180228 | 7 | 252 | 30.6 | 57.9 | 0.00 | 0.00 | 0.00 | 34 | 1010.9 |
| 20260504175228 | 7 | 248 | 37.0 | 56.3 | 0.00 | 0.00 | 0.00 | 34 | 1010.9 |
| 20260504174228 | 7 | 253 | 33.8 | 53.1 | 0.00 | 0.00 | 0.00 | 41 | 1010.9 |
| 20260504173230 | 7 | 257 | 37.0 | 57.9 | 0.00 | 0.00 | 0.00 | 38 | 1010.9 |
| 20260504172228 | 7 | 249 | 35.4 | 59.5 | 0.00 | 0.00 | 0.00 | 44 | 1010.6 |
| 20260504171229 | 7 | 250 | 38.6 | 61.2 | 0.00 | 0.00 | 0.00 | 44 | 1010.6 |
| 20260504170228 | 6 | 244 | 37.0 | 53.1 | 0.00 | 0.00 | 0.00 | 44 | 1010.6 |
| 20260504160228 | 5 | 249 | 35.4 | 59.5 | 0.00 | 0.00 | 0.00 | 50 | 1010.0 |
| 20260504150228 | 5 | 249 | 30.6 | 37.0 | 0.00 | 0.00 | 0.00 | 63 | 1010.1 |
| 20260504141229 | 4 | 253 | 24.1 | 33.8 | 0.00 | 0.00 | 0.00 | 67 | 1010.2 |
| 20260504140228 | 4 | 258 | 25.7 | 37.0 | 0.00 | 0.00 | 0.00 | 66 | 1010.2 |
| 20260504130228 | 3 | 263 | 24.1 | 35.4 | 0.00 | 0.00 | 0.00 | 69 | 1009.9 |
| 20260504120228 | 4 | 261 | 19.3 | 27.4 | 0.00 | 0.00 | 0.00 | 66 | 1009.7 |
| 20260504110228 | 5 | 258 | 24.1 | 38.6 | 0.00 | 0.00 | 0.00 | 60 | 1009.9 |
| 20260504100228 | 5 | 264 | 30.6 | 46.7 | 0.00 | 0.00 | 0.00 | 57 | 1009.9 |
| 20260504081228 | 5 | 263 | 30.6 | 45.1 | 0.00 | 0.00 | 0.00 | 60 | 1009.9 |
| 20260504080228 | 5 | 264 | 27.4 | 48.3 | 0.00 | 0.00 | 0.00 | 60 | 1009.9 |
| 20260504070228 | 6 | 263 | 32.2 | 49.9 | 0.00 | 0.00 | 0.00 | 56 | 1010.0 |
| 20260504045929 | 8 | 259 | 43.5 | 64.4 | 0.00 | 0.00 | 0.00 | 34 | 1010.6 |
| 20260504044929 | 8 | 265 | 41.8 | 61.2 | 0.00 | 0.00 | 0.00 | 31 | 1010.5 |
| 20260504043929 | 8 | 264 | 41.8 | 72.4 | 0.00 | 0.00 | 0.00 | 30 | 1010.4 |
| 20260504042929 | 8 | 262 | 45.1 | 69.2 | 0.00 | 0.00 | 0.00 | 30 | 1010.2 |
| 20260504041929 | 8 | 262 | 40.2 | 64.4 | 0.00 | 0.00 | 0.00 | 29 | 1010.5 |
| 20260504040929 | 8 | 261 | 46.7 | 69.2 | 0.00 | 0.00 | 0.00 | 29 | 1010.3 |
| 20260504035929 | 8 | 264 | 37.0 | 70.8 | 0.00 | 0.00 | 0.00 | 29 | 1010.2 |
| 20260504034929 | 9 | 258 | 38.6 | 64.4 | 0.00 | 0.00 | 0.00 | 29 | 1010.2 |
| 20260504033929 | 9 | 261 | 38.6 | 62.8 | 0.00 | 0.00 | 0.00 | 27 | 1010.1 |
| 20260504032929 | 9 | 260 | 33.8 | 59.5 | 0.00 | 0.00 | 0.00 | 26 | 1010.2 |
| 20260504031929 | 10 | 262 | 43.5 | 70.8 | 0.00 | 0.00 | 0.00 | 25 | 1010.1 |